Location: Москва
(55.7504°N, 37.6175°E)
Time: 21:25:11
(UTC+03:00)

Nauka - Pass Details

Date: 29 September 2021
Orbit: 417 x 423 km, 51.6° (Epoch: 26 October)

Event Time Altitude Azimuth Distance (km) Brightness Sun altitude
Rises 19:41:07 0° 271° (W) 2,367 ? -13.5°
Reaches altitude 10° 19:43:22 10° 260° (W) 1,502 ? -13.9°
Maximum altitude 19:46:21 30° 198° (SSW) 789 ? -14.3°
Enters shadow 19:47:53 20° 153° (SSE) 1,027 ? -14.5°
